Location: Cactus School
(34.5700°N, 118.0931°W)
Time: 20:23:25
(UTC-08:00)

deb Explorer IX - Visible Passes

Search period start: 21 November 2019 00:00
Search period end: 01 December 2019 00:00
Orbit: 546 x 1105 km, 38.8° (Epoch: 20 November)

Date Brightness Start Highest point End Pass type
(mag) Time Alt. Az. Time Alt. Az. Time Alt. Az.
21 Nov ? 03:52:14 40° E 03:52:14 40° E 03:55:21 10° E visible
21 Nov ? 05:33:37 16° W 05:37:14 38° SSW 05:41:27 10° SE visible
22 Nov ? 03:31:35 24° E 03:31:35 24° E 03:33:32 10° E visible
22 Nov ? 05:12:59 25° W 05:15:18 38° SSW 05:19:38 10° SE visible
23 Nov ? 03:10:59 14° E 03:10:59 14° E 03:11:43 10° ESE visible
23 Nov ? 04:52:23 35° WSW 04:53:21 38° SSW 04:57:48 10° SE visible
24 Nov ? 04:31:49 38° SSW 04:31:49 38° SSW 04:35:57 10° SE visible
25 Nov ? 04:11:18 29° S 04:11:18 29° S 04:14:07 10° SE visible
26 Nov ? 03:50:49 18° SSE 03:50:49 18° SSE 03:52:16 10° SSE visible
26 Nov ? 18:27:07 10° SSE 18:28:18 11° SE 18:28:18 11° SE visible
26 Nov ? 20:08:29 10° SW 20:09:42 15° SSW 20:09:42 15° SSW visible
27 Nov ? 03:30:21 10° SSE 03:30:21 10° SSE 03:30:23 10° SSE visible
27 Nov ? 18:04:50 10° SSE 18:06:36 11° SE 18:07:50 10° ESE visible
27 Nov ? 19:46:22 10° SW 19:49:14 24° SSW 19:49:14 24° SSW visible
28 Nov ? 17:42:38 10° SSE 17:44:29 11° SE 17:46:22 10° ESE visible
28 Nov ? 19:24:15 10° SW 19:28:44 35° S 19:28:44 35° S visible
29 Nov ? 17:20:29 10° SSE 17:22:22 11° SE 17:24:17 10° ESE visible
29 Nov ? 19:02:11 10° SW 19:08:11 43° SSE 19:08:11 43° SSE visible
29 Nov ? 20:48:50 10° WSW 20:49:35 14° WSW 20:49:35 14° WSW visible
30 Nov ? 18:40:07 10° SW 18:46:36 44° SSE 18:47:35 42° SE visible
30 Nov ? 20:26:44 10° WSW 20:28:59 22° WSW 20:28:59 22° WSW visible
